Date String (YYYY-MM-DD hh:mm:ss) UTC,Instrument flags,Ambient pressure (hPa),Sample flow (lpm),Bypass flow (lpm),Sample temperature (°C),Ambient temperature (°C),ASC tube jacket temperature (°C),LED temperature (°C),Box temperature (°C),Sample RH (%),Span deviation,Mass concentration (μg/m³),Mass concentration (μg/m³),Mass concentration (μg/m³)
DateTimeUTC,F1_M11,P_M11,Q1_M11,Q2_M11,T1_M11,T2_M11,T3_M11,T4_M11,T5_M11,U1_M11,ZSPAN_M11,X0_M11,X2_M11,X1_M11
2021-11-12 14:00:00,,0831.7,5.00,0.00,22.0,21.3,00.0,31.0,23.7,12.6,0000.0,0008.83,0003.03,0001.92
2021-11-12 14:01:00,,0831.7,5.00,0.00,22.0,21.2,00.0,31.0,23.7,12.7,0000.0,0009.32,0002.99,0001.90
2021-11-12 14:02:00,,0831.7,5.00,0.00,22.0,21.2,00.0,31.0,23.7,12.7,0000.0,0009.37,0003.00,0001.89
2021-11-12 14:03:00,,0831.8,5.01,0.00,22.0,21.5,00.0,31.1,23.8,12.7,0000.0,0009.16,0003.00,0001.88
2021-11-12 14:04:00,,0832.1,4.99,0.00,22.1,22.4,00.0,31.1,24.0,12.6,0000.0,0009.95,0003.03,0001.87
2021-11-12 14:05:00,,0832.1,5.02,0.00,22.2,23.1,00.0,31.1,24.2,12.5,0000.0,0009.87,0003.04,0001.87
2021-11-12 14:06:00,,0832.0,5.00,0.00,22.3,23.1,00.0,31.2,24.4,12.4,0000.0,0009.59,0003.07,0001.86
2021-11-12 14:07:00,,0832.1,4.99,0.00,22.4,22.8,00.0,31.2,24.4,12.4,0000.0,0008.90,0003.08,0001.86
2021-11-12 14:08:00,,0832.0,5.01,0.00,22.4,22.6,00.0,31.2,24.4,12.4,0000.0,0009.25,0003.10,0001.85
2021-11-12 14:09:00,,0832.1,4.99,0.00,22.4,22.5,00.0,31.2,24.4,12.4,0000.0,0009.23,0003.14,0001.86
2021-11-12 14:10:00,,0832.1,5.01,0.00,22.5,22.3,00.0,31.3,24.4,12.5,0000.0,0009.70,0003.14,0001.86
2021-11-12 14:11:00,,0831.9,5.00,0.00,22.5,22.2,00.0,31.3,24.3,12.5,0000.0,0009.66,0003.12,0001.86
2021-11-12 14:12:00,,0832.1,5.00,0.00,22.4,22.0,00.0,31.3,24.3,12.5,0000.0,0009.25,0003.10,0001.87
2021-11-12 14:13:00,,0832.1,5.01,0.00,22.4,21.9,00.0,31.3,24.3,12.5,0000.0,0010.18,0003.10,0001.87
2021-11-12 14:14:00,,0832.1,5.00,0.00,22.4,21.9,00.0,31.3,24.3,12.5,0000.0,0010.11,0003.11,0001.87
2021-11-12 14:15:00,,0832.1,5.01,0.00,22.5,21.9,00.0,31.3,24.2,12.5,0000.0,0009.28,0003.06,0001.87
2021-11-12 14:16:00,,0832.1,4.99,0.00,22.5,21.9,00.0,31.3,24.2,12.5,0000.0,0008.86,0002.98,0001.87
2021-11-12 14:17:00,,0832.1,5.01,0.00,22.5,21.9,00.0,31.3,24.3,12.5,0000.0,0008.75,0002.95,0001.86
2021-11-12 14:18:00,,0832.1,5.00,0.00,22.4,21.8,00.0,31.4,24.2,12.6,0000.0,0009.43,0003.03,0001.87
2021-11-12 14:19:00,,0832.1,5.00,0.00,22.4,21.7,00.0,31.4,24.2,12.6,0000.0,0010.59,0003.09,0001.89
2021-11-12 14:20:00,,0832.1,5.00,0.00,22.4,21.7,00.0,31.4,24.1,12.6,0000.0,0010.47,0003.09,0001.89
2021-11-12 14:21:00,,0832.1,5.00,0.00,22.4,21.7,00.0,31.4,24.1,12.6,0000.0,0010.69,0003.10,0001.89
2021-11-12 14:22:00,,0832.1,5.01,0.00,22.4,21.7,00.0,31.4,24.1,12.6,0000.0,0010.50,0003.14,0001.91
2021-11-12 14:23:00,,0832.1,4.99,0.00,22.4,21.7,00.0,31.4,24.1,12.7,0000.0,0010.93,0003.17,0001.91
2021-11-12 14:24:00,,0832.1,5.02,0.00,22.3,21.7,00.0,31.4,24.1,12.7,0000.0,0009.97,0003.22,0001.92
2021-11-12 14:25:00,,0832.1,4.99,0.00,22.3,21.7,00.0,31.3,24.1,12.7,0000.0,0009.84,0003.18,0001.93
2021-11-12 14:26:00,,0832.3,4.99,0.00,22.3,21.7,00.0,31.3,24.1,12.7,0000.0,0010.04,0003.18,0001.93
2021-11-12 14:27:00,,0832.3,5.01,0.00,22.3,21.6,00.0,31.3,24.0,12.7,0000.0,0011.05,0003.22,0001.94
2021-11-12 14:28:00,,0832.3,4.99,0.00,22.3,21.6,00.0,31.3,24.0,12.7,0000.0,0011.20,0003.23,0001.95
2021-11-12 14:29:00,,0832.3,5.01,0.00,22.3,21.7,00.0,31.3,24.1,12.7,0000.0,0010.61,0003.22,0001.94
2021-11-12 14:30:00,,0832.3,4.99,0.00,22.3,21.7,00.0,31.3,24.1,12.8,0000.0,0009.15,0003.22,0001.95
2021-11-12 14:31:00,,0832.3,5.00,0.00,22.3,21.7,00.0,31.3,24.1,12.8,0000.0,0009.74,0003.22,0001.96
2021-11-12 14:32:00,,0832.2,5.00,0.00,22.3,21.7,00.0,31.3,24.1,12.8,0000.0,0009.54,0003.23,0001.96
2021-11-12 14:33:00,,0832.2,5.00,0.00,22.3,21.7,00.0,31.3,24.1,12.8,0000.0,0009.40,0003.24,0001.95
2021-11-12 14:34:00,,0832.3,4.99,0.00,22.3,21.7,00.0,31.3,24.1,12.9,0000.0,0008.87,0003.22,0001.96
2021-11-12 14:35:00,,0832.2,5.01,0.00,22.3,21.7,00.0,31.3,24.0,12.8,0000.0,0008.80,0003.20,0001.96
2021-11-12 14:36:00,,0832.3,4.99,0.00,22.3,21.6,00.0,31.3,24.0,12.9,0000.0,0008.77,0003.20,0001.95
2021-11-12 14:37:00,,0832.4,5.00,0.00,22.3,21.6,00.0,31.3,24.1,12.9,0000.0,0008.81,0003.22,0001.96
2021-11-12 14:38:00,,0832.4,5.00,0.00,22.3,21.6,00.0,31.3,24.1,12.9,0000.0,0008.13,0003.21,0001.96
2021-11-12 14:39:00,,0832.4,5.01,0.00,22.3,21.6,00.0,31.3,24.0,13.0,0000.0,0008.41,0003.18,0001.97
2021-11-12 14:40:00,,0832.4,4.99,0.00,22.3,21.6,00.0,31.3,24.0,13.0,0000.0,0008.65,0003.16,0001.97
2021-11-12 14:41:00,,0832.4,5.01,0.00,22.3,21.5,00.0,31.3,24.0,13.0,0000.0,0008.89,0003.14,0001.97
2021-11-12 14:42:00,,0832.3,5.00,0.00,22.2,21.5,00.0,31.3,24.0,13.0,0000.0,0008.79,0003.13,0001.98
2021-11-12 14:43:00,,0832.3,5.00,0.00,22.2,21.5,00.0,31.3,24.0,13.1,0000.0,0008.69,0003.14,0001.98
2021-11-12 14:44:00,,0832.5,5.00,0.00,22.2,21.5,00.0,31.3,24.0,13.1,0000.0,0008.63,0003.12,0001.99
2021-11-12 14:45:00,,0832.6,5.00,0.00,22.2,21.4,00.0,31.3,23.9,13.1,0000.0,0008.80,0003.09,0002.00
2021-11-12 14:46:00,,0832.6,5.01,0.00,22.2,21.4,00.0,31.3,23.9,13.2,0000.0,0008.97,0003.07,0001.99
2021-11-12 14:47:00,,0832.6,5.00,0.00,22.2,21.4,00.0,31.2,23.9,13.2,0000.0,0009.08,0003.03,0001.98
2021-11-12 14:48:00,,0832.5,5.00,0.00,22.2,21.4,00.0,31.2,23.9,13.2,0000.0,0009.03,0003.04,0001.97
2021-11-12 14:49:00,,0832.5,5.00,0.00,22.2,21.5,00.0,31.2,23.9,13.2,0000.0,0009.25,0002.97,0001.95
2021-11-12 14:50:00,,0832.5,4.99,0.00,22.2,21.5,00.0,31.2,24.0,13.2,0000.0,0009.41,0002.99,0001.93
2021-11-12 14:51:00,,0832.6,5.01,0.00,22.2,21.5,00.0,31.2,24.0,13.2,0000.0,0009.20,0003.03,0001.93
2021-11-12 14:52:00,,0832.6,4.99,0.00,22.2,21.5,00.0,31.2,24.0,13.2,0000.0,0008.93,0003.00,0001.91
2021-11-12 14:53:00,,0832.5,5.00,0.00,22.2,21.5,00.0,31.2,24.0,13.3,0000.0,0008.64,0002.96,0001.89
2021-11-12 14:54:00,,0832.5,4.99,0.00,22.2,21.5,00.0,31.2,24.0,13.3,0000.0,0008.21,0002.94,0001.90
2021-11-12 14:55:00,,0832.5,5.00,0.00,22.2,21.5,00.0,31.2,24.0,13.3,0000.0,0008.38,0002.88,0001.90
2021-11-12 14:56:00,,0832.5,5.00,0.00,22.2,21.5,00.0,31.2,24.0,13.3,0000.0,0008.52,0002.90,0001.88
2021-11-12 14:57:00,,0832.4,5.00,0.00,22.2,21.5,00.0,31.2,24.0,13.2,0000.0,0008.28,0002.91,0001.88
2021-11-12 14:58:00,,0832.4,5.00,0.00,22.2,21.5,00.0,31.2,23.9,13.2,0000.0,0008.10,0002.91,0001.90
2021-11-12 14:59:00,,0832.5,5.01,0.00,22.1,21.5,00.0,31.2,23.8,13.3,0000.0,0008.08,0002.94,0001.92
